Regional Weather Roundup
Issued by NWS

Home | Current Version | Previous Version | Graphics & Text | Print | Product List | Glossary On
Versions: 1 2 3 4 5 6 7 8 9 10 11 12 13 14 15 16 17 18 19 20 21 22 23 24 25 26 27 28 29 30 31 32 33 34 35 36 37 38 39 40 41 42 43 44 45 46 47 48 49 50
000
ASUS45 KPSR 182100
RWRAZ

PRELIMINARY ARIZONA REGIONAL HOURLY WEATHER ROUNDUP
NATIONAL WEATHER SERVICE PHOENIX AZ
200 PM MST THU SEP 18 2014

NOTE: FAIR INDICATES FEW OR NO CLOUDS BELOW 12,000 FEET WITH NO
SIGNIFICANT WEATHER AND/OR OBSTRUCTIONS TO VISIBILITY.

AZZ001>003-036-182200-
NORTHWEST ARIZONA

CITY           SKY/WX    TMP DP  RH WIND       PRES   REMARKS
KINGMAN        FAIR      88  56  33 W9G20     29.87F
$$

AZZ004>008-015-016-018-182200-
NORTH CENTRAL ARIZONA

CITY           SKY/WX    TMP DP  RH WIND       PRES   REMARKS
GRAND CANYON   FAIR      78  48  34 W10G20    30.08F
PRESCOTT       FAIR      83  52  34 N6        29.98F
FLAGSTAFF        N/A     73  49  42 MISG      30.11F
PAYSON         FAIR      81  57  44 SW10      29.99F
PAGE           FAIR      88  48  25 N7        29.90F
$$

AZZ009>014-017-182200-
NORTHEAST ARIZONA

CITY           SKY/WX    TMP DP  RH WIND       PRES   REMARKS
WINSLOW        NOT AVBL
SAINT JOHNS    CLOUDY    75  52  44 E6        30.01F
WINDOW ROCK    CLOUDY    76  46  34 E8        30.08F
SHOW LOW       FAIR      68  52  56 CALM      30.08F
$$

AZZ023-182200-
GREATER PHOENIX AREA

CITY           SKY/WX    TMP DP  RH WIND       PRES   REMARKS
PHOENIX        FAIR      93  61  34 CALM      29.72F
GLENDALE       MOSUNNY   91  64  40 SE3       29.74F
DEER VALLEY    FAIR      90  61  37 SE5       29.74F
SCOTTSDALE     FAIR      92  62  36 VRB5      29.76F
MESA-GATEWAY   PTSUNNY   91  63  38 VRB6      29.77F
CHANDLER       MOSUNNY   91  63  38 SE9       29.75F
$$

AZZ027-028-182200-
SOUTHWEST MARICOPA COUNTY AND PINAL COUNTY

CITY           SKY/WX    TMP DP  RH WIND       PRES   REMARKS
CASA GRANDE    PTSUNNY   90  63  40 NW3       29.77F
GILA BEND      PTCLDY    93  61  33 NW8       29.73F
$$

AZZ503-504-507>509-182200-
SOUTHEAST ARIZONA

CITY           SKY/WX    TMP DP  RH WIND       PRES   REMARKS
TUCSON         CLOUDY    81  64  56 CALM      29.86F
RYAN FIELD       N/A     82  66  57 SW3       29.85F
NOGALES        PTSUNNY   80  64  58 N5        29.91F
SAFFORD        CLOUDY    75  63  66 E3        29.89F
$$

AZZ020-021-025-026-031-182200-
SOUTHWEST ARIZONA

CITY           SKY/WX    TMP DP  RH WIND       PRES   REMARKS
YUMA           FAIR     101  58  24 VRB5      29.66F HX 100
$$

CAZ031-033-041-043-047-048-061-182200-
SOUTHERN CALIFORNIA

CITY           SKY/WX    TMP DP  RH WIND       PRES   REMARKS
DOWNTOWN L.A.  FAIR      79  63  57 MISG      29.84F
L.A. AIRPORT   FAIR      76  63  64 W10G20    29.86F
SAN DIEGO      FAIR      78  64  61 NW12      29.86F
BURBANK        FAIR      79  60  52 S10       29.84F
ONTARIO        FAIR      84  59  42 SW12      29.84F
RIVERSIDE      FAIR      84  58  40 VRB7      29.84F
PALM SPRINGS   FAIR     105  36   9 N20G25    29.68F
EL CENTRO NAS  FAIR     106  36   9 SW10G22   29.63F
IMPERIAL       FAIR     104  40  11 W6        29.63F
BLYTHE         FAIR     101  66  31 S12       29.66F HX 105
$$

NVZ020-UTZ003-182200-
SOUTHERN NEVADA-UTAH

CITY           SKY/WX    TMP DP  RH WIND       PRES   REMARKS
LAS VEGAS      NOT AVBL
SALT LAKE CITY FAIR      91  45  20 S15G25    29.82F
$$

NMZ009-TXZ055-182200-
NEW MEXICO-WEST TEXAS

CITY           SKY/WX    TMP DP  RH WIND       PRES   REMARKS
ALBUQUERQUE    MOSUNNY   80  50  34 SW8       30.00F
EL PASO        LGT RAIN  71  65  81 N10       29.94F
$$


........................KEY........................
SKY/WX - SKY CONDITION/WEATHER
TMP    - TEMPERATURE IN FAHRENHEIT
DP     - DEW POINT IN FAHRENHEIT
RH     - RELATIVE HUMIDITY IN PERCENT
WIND   - DIRECTION AND SPEED IN MILES PER HOUR (MPH)
VRB    - VARIABLE WIND DIRECTION
PRES   - MEAN SEA LEVEL PRESSURE IN INCHES OF MERCURY
         F - FALLING PRESSURE   R - RISING PRESSURE
         S - STEADY PRESSURE
VSB    - VISIBILITY IN MILES
HX     - HEAT INDEX IN FAHRENHEIT
WCI    - WIND CHILL INDEX IN FAHRENHEIT
TC     - TEMPERATURE IN CELSIUS WHICH IS ALSO KNOWN AS
         TEMPERATURE IN CENTIGRADE
AFB    - AIR FORCE BASE
         LUKE AFB IS LUKE AIR FORCE BASE
         DAVIS-MONTHAN IS DAVIS-MONTHAN AIR FORCE BASE
NAS    - NAVAL AIR STATION
         EL CENTRO NAS IS EL CENTRO NAVAL AIR STATION
N/A    - NOT AVAILABLE


USA.gov is the U.S. government's official web portal to all federal, state and local government web resources and services.